星链-32236 (STARLINK-32236)

导读 | 豆包AI

STARLINK-32236是美国SpaceX公司星链(Starlink)星座的第二代卫星,于2024年8月10日发射入轨。星链星座旨在构建全球低轨宽带互联网,为偏远地区提供高速低延迟网络服务。该星配备增强型相控阵天线与激光星间链路,单星容量超100Gbps,运行于340-614公里近地轨道,具备自主轨道机动与避碰能力,退役后可再入大气层完全销毁,减少空间碎片影响,助力星链实现全球完整覆盖。

基本信息
目录编号:
60418
目录名称:
STARLINK-32236
国际标识:
2024-141W
轨道中心:
EARTH
卫星名称:
星链-32236 (STARLINK-32236)
卫星全名:
星链-32236 (STARLINK-32236)
卫星状态:
在轨 (已飞行582 天)
发射日期:
2024-08-10 UTC
国别 :
美国 (US)
星等 :
--
轨道信息
数据来源 国际轨道数据
星历时间: 2026-03-15T11:02:11+0800
11小时前
查看轨道信息
半长轴: 6853.389km
偏心率: 0.0001072
轨道倾角: 53.160°
近地点辐角 120.169°
升交点赤经 217.279°
平近点角 239.941°
近地点: 474.517km
远地点: 475.987km
周期: 94.106分钟
每日圈数: 15.301877
详细信息
卫星平台:
Starlink v2.0 mini
运营商:
太空探索技术公司
运营商所在国:
美国
制造商(研发单位):
太空探索技术公司
制造商所在国:
美国
使用方式:
暂无
卫星简介
星链(Starlink)计划是由太空探索技术公司(SpaceX)提出的一个巨型低轨卫星互联网星座项目,计划在2019年至2024年间在太空搭建由约1.2万颗卫星组成的“星链”网络,其中1584颗将部署在地球上空550千米处的近地轨道,并从2020年开始工作。该卫星仍在工作。
2D轨道图
3D轨道图
轨道高度分析图
轨道倾角分析图
轨道综合分析图
查看轨道综合分析图